Glasgow, MT

2:08 AM MDT on July 21, 2017 (GMT -0600)
Wokal-Glasgow International

Weather History for KGGW - February, 2013

Change the Weather History Date:

Tuesday, February 26, 2013

  Actual Average Record
Temperature  
Mean Temperature 31 °F 23 °F  
Max Temperature 36 °F 33 °F 66 °F (1932)
Min Temperature 26 °F 13 °F -30 °F (1917)
Degree Days  
Heating Degree Days 34 42  
Month to date heating degree days 1064 1199  
Since 1 July heating degree days 6134 6288  
Cooling Degree Days 0 0  
Month to date cooling degree days 0 0  
Year to date cooling degree days 0 0  
Moisture  
Dew Point 24 °F    
Average Humidity 78    
Maximum Humidity 92    
Minimum Humidity 64    
Precipitation  
Precipitation 0.00 in 0.01 in 0.14 in (1999)
Month to date precipitation 0.10 0.24  
Year to date precipitation 0.66 0.61  
Snow  
Snow 0.00 in 0.20 in 2.20 in (2009)
Month to date snowfall 1.5 4.1  
Since 1 July snowfall 37.3 26.7  
Snow Depth 0.00 in    
Sea Level Pressure  
Sea Level Pressure 30.06 in    
Wind  
Wind Speed 13 mph (WNW)    
Max Wind Speed 20 mph    
Max Gust Speed 25 mph    
Visibility 9 miles    
Events      
T = Trace of Precipitation, MM = Missing Value Source: NWS Daily Summary

Daily Weather History Graph

Daily Weather History Graph

Search for Another Location

Airport or City:

Trip Planner

Search our weather history database for the weather conditions in past years. The results will help you decide how hot, cold, wet, or windy it might be!

Date:

Astronomy

Feb. 26, 2013 Rise Set
Actual Time 6:52 AM MST 5:46 PM MST
Civil Twilight 6:21 AM MST 6:17 PM MST
Nautical Twilight 5:45 AM MST 6:54 PM MST
Astronomical Twilight 5:09 AM MST 7:30 PM MST
Moon 7:16 PM MST (2/26) 6:48 AM MST (2/26)
Length of Visible Light 11h 56m
Length of Day
10h 53m
Full, 99% of the Moon is Illuminated
Feb 26
Full
Mar 4
Last Quarter
Mar 11
New
Mar 19
First Quarter
Mar 27
Full

Hourly Weather History & Observations

Time (MST) Temp. Windchill Dew Point Humidity Pressure Visibility Wind Dir Wind Speed Gust Speed Precip Events Conditions
12:53 AM 35.1 °F 31.0 °F 27.0 °F 72% 29.84 in 10.0 mi West 4.6 mph - N/A   Overcast
1:53 AM 35.1 °F 29.3 °F 25.0 °F 67% 29.84 in 10.0 mi West 6.9 mph - N/A   Partly Cloudy
2:53 AM 34.0 °F 26.6 °F 25.0 °F 70% 29.85 in 10.0 mi WNW 9.2 mph - N/A   Clear
3:53 AM 32.0 °F 24.8 °F 25.0 °F 75% 29.86 in 10.0 mi WNW 8.1 mph - N/A   Clear
4:53 AM 30.9 °F 23.5 °F 25.0 °F 79% 29.90 in 10.0 mi WNW 8.1 mph - N/A   Clear
5:53 AM 28.9 °F 17.3 °F 25.0 °F 85% 29.96 in 10.0 mi NW 16.1 mph - N/A   Partly Cloudy
6:33 AM 28.4 °F 17.5 °F 24.8 °F 86% 29.90 in 10.0 mi WNW 13.8 mph - N/A   Mostly Cloudy
6:53 AM 28.9 °F 18.6 °F 25.0 °F 85% 29.99 in 10.0 mi WNW 12.7 mph - N/A   Overcast
7:53 AM 28.4 °F 20.4 °F 26.6 °F 93% 29.93 in 8.0 mi WNW 8.1 mph - N/A   Overcast
8:53 AM 30.0 °F 21.1 °F 25.0 °F 82% 30.04 in 7.0 mi WNW 10.4 mph - N/A   Overcast
9:19 AM 30.2 °F 21.3 °F 24.8 °F 80% 29.97 in 6.0 mi West 10.4 mph - N/A   Haze
9:53 AM 30.0 °F 19.1 °F 25.0 °F 82% 30.06 in 7.0 mi West 15.0 mph - N/A   Overcast
10:53 AM 30.9 °F 19.4 °F 23.0 °F 72% 30.06 in 8.0 mi WNW 17.3 mph - N/A   Overcast
11:53 AM 32.0 °F 21.2 °F 24.1 °F 73% 30.07 in 8.0 mi West 16.1 mph - N/A   Overcast
12:53 PM 32.0 °F 20.8 °F 25.0 °F 75% 30.06 in 10.0 mi West 17.3 mph - N/A   Overcast
1:53 PM 32.0 °F 20.8 °F 25.0 °F 75% 30.09 in 10.0 mi WNW 17.3 mph - N/A   Overcast
2:53 PM 32.0 °F 22.5 °F 24.1 °F 73% 30.12 in 10.0 mi West 12.7 mph - N/A   Overcast
3:53 PM 30.9 °F 21.7 °F 23.0 °F 72% 30.15 in 10.0 mi WNW 11.5 mph 21.9 mph N/A   Overcast
4:53 PM 30.0 °F 19.1 °F 23.0 °F 75% 30.17 in 10.0 mi WNW 15.0 mph - N/A   Overcast
5:53 PM 28.9 °F 17.3 °F 23.0 °F 78% 30.20 in 10.0 mi NNW 16.1 mph - N/A   Overcast
6:53 PM 28.0 °F 17.0 °F 23.0 °F 81% 30.22 in 10.0 mi WNW 13.8 mph - N/A   Overcast
7:53 PM 28.9 °F 19.2 °F 23.0 °F 78% 30.23 in 10.0 mi NW 11.5 mph - N/A   Overcast
8:53 PM 28.0 °F 16.1 °F 21.9 °F 78% 30.25 in 10.0 mi NW 16.1 mph - N/A   Overcast
9:53 PM 26.6 °F 15.7 °F 21.2 °F 80% 30.17 in 10.0 mi NW 12.7 mph - N/A   Overcast
10:53 PM 27.0 °F 16.7 °F 21.9 °F 81% 30.27 in 10.0 mi NNW 11.5 mph - N/A   Overcast
11:53 PM 26.1 °F 15.6 °F 21.9 °F 84% 30.28 in 10.0 mi NW 11.5 mph - N/A   Overcast